EW7943 Weather Reports


time (UTC)temp
C
wind
direction
speed
KPH
gust
KPH
rain 1hr
cm
rain 24hr
cm
rain mn
cm
humidity
%
barometer
mb
20260510190034 8 125 0.0 0.0 0.00 0.00 0.00 89 1022.0
20260510184553 8 125 0.0 0.0 0.00 0.00 0.00 88 1021.9
20260510183005 8 125 0.0 0.0 0.00 0.00 0.00 88 1021.8
20260510181533 8 125 0.0 0.0 0.00 0.00 0.00 88 1021.7
20260510180056 8 125 0.0 0.0 0.00 0.00 0.00 88 1021.6
20260510180006 8 125 0.0 0.0 0.00 0.00 0.00 88 1021.6
20260510174529 8 125 0.0 0.0 0.00 0.00 0.00 88 1021.5
20260510173059 8 125 0.0 0.0 0.00 0.00 0.00 88 1021.4
20260510171513 8 125 0.0 0.0 0.00 0.00 0.00 87 1021.5
20260510170034 8 125 0.0 0.0 0.00 0.00 0.00 87 1021.6
20260510164551 9 125 0.0 0.0 0.00 0.00 0.00 87 1021.5
20260510163016 9 125 0.0 0.0 0.00 0.00 0.00 86 1021.4
20260510161538 9 125 0.0 0.0 0.00 0.00 0.00 86 1021.5
20260510160006 9 125 0.0 0.0 0.00 0.00 0.00 85 1021.5
20260510154526 9 125 0.0 0.0 0.00 0.00 0.00 85 1021.5
20260510153048 10 125 0.0 0.0 0.00 0.00 0.00 84 1021.5
20260510151504 10 125 0.0 0.0 0.00 0.00 0.00 84 1021.5
20260510150028 10 125 0.0 0.0 0.00 0.00 0.00 84 1021.5
20260510144546 10 125 0.0 0.0 0.00 0.00 0.00 83 1021.5
20260510143010 10 125 0.0 0.0 0.00 0.00 0.00 83 1021.5
20260510141530 10 125 0.0 0.0 0.00 0.00 0.00 83 1021.5
20260510140045 10 125 0.0 0.0 0.00 0.00 0.00 82 1021.5
20260510134606 11 125 0.0 0.0 0.00 0.00 0.00 82 1021.5
20260510133018 11 125 0.0 0.0 0.00 0.00 0.00 82 1021.6
20260510131533 11 124 0.0 0.0 0.00 0.00 0.00 82 1021.6
20260510130052 11 124 0.0 0.0 0.00 0.00 0.00 81 1021.7
20260510124521 11 124 0.0 0.0 0.00 0.00 0.00 81 1021.7
20260510123051 11 124 0.0 0.0 0.00 0.00 0.00 80 1021.8
20260510121515 12 125 0.0 0.0 0.00 0.00 0.00 80 1021.8
20260510120039 12 123 0.0 0.0 0.00 0.00 0.00 79 1021.8
20260510114502 12 123 0.0 0.0 0.00 0.00 0.00 79 1021.8
20260510113013 12 123 0.0 0.0 0.00 0.00 0.00 79 1021.5
20260510111552 12 123 0.0 0.0 0.00 0.00 0.00 78 1021.5
20260510110054 13 123 0.0 0.0 0.00 0.00 0.00 77 1021.4
20260510110007 13 123 0.0 0.0 0.00 0.00 0.00 77 1021.4
20260510104520 13 123 0.0 0.0 0.00 0.00 0.00 76 1021.4
20260510103057 13 123 0.0 0.0 0.00 0.00 0.00 75 1021.4
20260510101519 14 124 0.0 0.0 0.00 0.00 0.00 74 1021.4
20260510100038 14 124 0.0 0.0 0.00 0.00 0.00 73 1021.2
20260510094553 15 123 0.0 0.0 0.00 0.00 0.00 72 1021.0
20260510093041 15 116 0.0 0.0 0.00 0.00 0.00 71 1020.9
20260510091549 15 111 0.0 0.0 0.00 0.00 0.00 71 1020.8
20260510090035 15 103 0.0 0.0 0.00 0.00 0.00 71 1020.6
20260510084546 16 100 0.0 0.0 0.00 0.00 0.00 70 1020.4
20260510083015 16 100 0.0 0.0 0.00 0.00 0.00 68 1020.2
20260510081543 17 100 0.0 0.0 0.00 0.00 0.00 67 1020.0
20260510080013 17 100 0.0 0.0 0.00 0.00 0.00 66 1019.8
20260510074541 18 100 0.0 0.0 0.00 0.00 0.00 64 1019.6
20260510073058 18 133 0.0 0.0 0.00 0.00 0.00 63 1019.6
20260510071525 18 133 0.0 0.0 0.00 0.00 0.00 62 1019.5
20260510070054 18 108 0.0 0.0 0.00 0.00 0.00 61 1019.4
20260510064518 19 112 0.0 0.0 0.00 0.00 0.00 60 1019.2
20260510063044 19 111 0.0 0.0 0.00 0.00 0.00 59 1019.2
20260510061518 19 110 0.0 0.0 0.00 0.00 0.00 59 1019.2
20260510060043 20 146 0.0 0.0 0.00 0.00 0.00 58 1019.2
20260510054510 20 145 0.0 0.0 0.00 0.00 0.00 58 1019.2
20260510053026 20 145 0.0 0.0 0.00 0.00 0.00 58 1019.2
20260510051550 20 146 0.0 0.0 0.00 0.00 0.00 58 1019.1
20260510050016 20 146 0.0 0.0 0.00 0.00 0.00 58 1019.1
20260510044551 20 127 0.0 0.0 0.00 0.00 0.00 58 1019.0
20260510043010 19 123 0.0 0.0 0.00 0.00 0.00 60 1019.1
20260510041530 19 124 0.0 0.0 0.00 0.00 0.00 60 1019.1
20260510040008 19 119 0.0 0.0 0.00 0.00 0.00 59 1019.3
20260510034516 20 112 0.0 0.0 0.00 0.00 0.00 59 1019.4
20260510033032 19 115 0.0 0.0 0.00 0.00 0.00 60 1019.4
20260510031554 18 106 0.0 0.0 0.00 0.00 0.00 63 1019.4
20260510030016 19 114 0.0 0.0 0.00 0.00 0.00 62 1019.6
20260510024528 18 103 0.0 0.0 0.00 0.00 0.00 64 1019.9
20260510023054 18 96 0.0 0.0 0.00 0.00 0.00 64 1020.1
20260510021503 18 64 0.0 0.0 0.00 0.00 0.00 66 1020.3
20260510020028 17 123 0.0 0.0 0.00 0.00 0.00 67 1020.5
20260510014551 17 123 0.0 0.0 0.00 0.00 0.00 67 1020.7
20260510013007 17 95 0.0 0.0 0.00 0.00 0.00 69 1020.8
20260510011528 17 100 0.0 0.0 0.00 0.00 0.00 70 1020.9
20260510010033 16 125 0.0 0.0 0.00 0.00 0.00 75 1020.9
20260510004554 15 119 0.0 0.0 0.00 0.00 0.00 76 1020.9
20260510003020 15 131 0.0 0.0 0.00 0.00 0.00 76 1020.9
20260510001525 15 96 0.0 0.0 0.00 0.00 0.00 81 1020.9
20260510000040 15 134 0.0 0.0 0.00 0.00 0.00 81 1020.9
20260509234628 14 110 0.0 0.0 0.00 0.00 0.00 84 1021.0
20260509233005 13 121 0.0 0.0 0.00 0.00 0.00 85 1020.9
20260509231515 13 117 0.0 0.0 0.00 0.00 0.00 87 1020.8
20260509230025 12 122 0.0 0.0 0.00 0.00 0.00 89 1020.8
20260509224545 12 113 0.0 0.0 0.00 0.00 0.00 90 1020.8
20260509223053 11 112 0.0 0.0 0.00 0.00 0.00 91 1020.6
20260509221514 11 106 0.0 0.0 0.00 0.00 0.00 91 1020.5
20260509220034 11 101 0.0 0.0 0.00 0.00 0.00 92 1020.4
20260509214547 10 99 0.0 0.0 0.00 0.00 0.00 92 1020.1
20260509213007 10 165 0.0 0.0 0.00 0.00 0.00 92 1020.0
20260509211540 10 175 0.0 0.0 0.00 0.00 0.00 92 1019.8
20260509210051 10 188 0.0 0.0 0.00 0.00 0.00 92 1019.7
20260509210001 10 188 0.0 0.0 0.00 0.00 0.00 92 1019.7
20260509204517 10 77 0.0 0.0 0.00 0.00 0.00 92 1019.7
20260509203111 10 136 0.0 0.0 0.00 0.00 0.00 92 1019.5
20260509201505 10 136 0.0 0.0 0.00 0.00 0.00 92 1019.4
20260509200027 10 136 0.0 0.0 0.00 0.00 0.00 91 1019.2
20260509194545 10 136 0.0 0.0 0.00 0.00 0.00 91 1019.1
20260509193007 10 136 0.0 0.0 0.00 0.00 0.00 91 1018.9
20260509191518 10 136 0.0 0.0 0.00 0.00 0.00 91 1018.8